EW5586 Weather Reports


time (UTC)temp
F
wind
direction
speed
knots
gust
knots
rain 1hr
in
rain 24hr
in
rain mn
in
humidity
%
barometer
mb
20260510120252 0 0.0 0.0 0.00 0.11 0.00 1010.2
20260510115746 0 0.0 0.0 0.00 0.11 0.00 1010.2
20260510115236 0 0.0 0.0 0.00 0.11 0.00 1010.1
20260510114648 0 0.0 0.0 0.00 0.11 0.00 1010.1
20260510114144 0 0.0 0.0 0.00 0.11 0.00 1009.9
20260510113552 0 0.0 0.0 0.00 0.11 0.00 1009.9
20260510113043 0 0.0 0.0 0.00 0.11 0.00 1009.8
20260510112539 0 0.0 0.0 0.00 0.11 0.00 1009.5
20260510111946 0 0.0 0.0 0.00 0.11 0.00 1009.5
20260510111443 0 0.0 0.0 0.00 0.11 0.00 1009.3
20260510110942 0 0.0 0.0 0.00 0.11 0.00 1009.2
20260510110442 0 0.0 0.0 0.00 0.11 0.00 1009.1
20260510105934 0 0.0 0.0 0.00 0.11 0.00 1008.9
20260510105434 0 0.0 0.0 0.00 0.11 0.00 1008.8
20260510104847 0 0.0 0.0 0.00 0.11 0.00 1008.7
20260510104342 0 0.0 0.0 0.00 0.11 0.00 1008.5
20260510103835 0 0.0 0.0 0.00 0.11 0.00 1008.4
20260510103244 0 0.0 0.0 0.00 0.11 0.00 1008.3
20260510102742 0 0.0 0.0 0.00 0.11 0.00 1008.2
20260510102240 0 0.0 0.0 0.00 0.11 0.00 1008.1
20260510101645 0 0.0 0.0 0.00 0.11 0.00 1008.0
20260510101144 0 0.0 0.0 0.00 0.11 0.00 1007.9
20260510100546 0 0.0 0.0 0.00 0.11 0.00 1007.8
20260510100047 0 0.0 0.0 0.00 0.11 0.00 1007.7
20260510095544 0 0.0 0.0 0.00 0.11 0.00 1007.9
20260510095044 0 0.0 0.0 0.00 0.11 0.00 1007.6
20260510094545 0 0.0 0.0 0.00 0.11 0.00 1007.4
20260510093538 0 0.0 0.0 0.00 0.11 0.00 1007.3
20260510093030 0 0.0 0.0 0.00 0.11 0.00 1007.3
20260510092446 0 0.0 0.0 0.00 0.11 0.00 1007.4
20260510091946 0 0.0 0.0 0.00 0.11 0.00 1007.0
20260510091444 0 0.0 0.0 0.00 0.11 0.00 1007.1
20260510090935 0 0.0 0.0 0.00 0.11 0.00 1007.1
20260510090340 0 0.0 0.0 0.00 0.11 0.00 1007.1
20260510085748 49 0.0 0.0 0.00 0.11 0.00 93 1007.1
20260510085237 49 201 5.2 6.1 0.00 0.11 0.00 93 1007.1
20260510084725 49 201 5.2 7.8 0.00 0.11 0.00 93 1007.0
20260510084210 49 201 6.1 8.7 0.00 0.11 0.00 93 1006.9
20260510083204 50 223 4.3 7.8 0.00 0.11 0.00 92 1007.0
20260510082703 50 0 4.3 7.8 0.00 0.11 0.00 93 1006.8
20260510082156 50 207 5.2 8.7 0.00 0.11 0.00 93 1007.0
20260510081650 51 207 5.2 8.7 0.00 0.11 0.00 93 1007.0
20260510081146 51 211 5.2 11.3 0.00 0.11 0.00 93 1007.0
20260510080143 51 198 6.1 12.2 0.00 0.11 0.00 93 1007.0
20260510075644 51 212 5.2 12.2 0.00 0.11 0.00 93 1006.8
20260510075142 51 235 4.3 8.7 0.00 0.11 0.00 93 1006.9
20260510074642 51 194 4.3 10.4 0.00 0.11 0.00 93 1006.8
20260510073639 50 235 4.3 8.7 0.00 0.11 0.00 93 1006.7
20260510073140 50 192 4.3 7.0 0.00 0.11 0.00 93 1006.7
20260510072640 50 228 5.2 8.7 0.00 0.11 0.00 93 1006.5
20260510072139 50 207 4.3 8.7 0.00 0.11 0.00 92 1006.4
20260510071638 50 182 5.2 8.7 0.00 0.11 0.00 93 1006.3
20260510071138 50 219 5.2 9.6 0.00 0.11 0.00 93 1006.2
20260510070639 50 217 6.1 9.6 0.00 0.11 0.00 93 1006.3
20260510070139 50 223 6.1 9.6 0.00 0.11 0.00 93 1006.3
20260510065637 50 234 5.2 9.6 0.00 0.11 0.00 93 1006.3
20260510065130 50 221 5.2 10.4 0.00 0.11 0.00 93 1006.2
20260510064624 50 210 6.1 10.4 0.00 0.11 0.00 93 1006.0
20260510064117 51 212 5.2 11.3 0.00 0.11 0.00 93 1006.0
20260510063612 51 215 5.2 11.3 0.00 0.11 0.00 93 1005.8
20260510063105 51 215 5.2 9.6 0.00 0.11 0.00 93 1005.8
20260510062053 51 181 5.2 10.4 0.00 0.11 0.00 93 1006.0
20260510061550 51 219 5.2 9.6 0.00 0.11 0.00 93 1005.9
20260510061050 50 225 6.1 9.6 0.00 0.11 0.00 93 1006.0
20260510060547 51 184 7.0 12.2 0.00 0.11 0.00 93 1005.7
20260510060047 51 217 7.0 12.2 0.00 0.11 0.00 93 1005.8
20260510055046 51 243 6.1 12.2 0.00 0.11 0.00 94 1006.0
20260510054046 50 221 7.8 12.2 0.00 0.11 0.00 94 1006.0
20260510053544 50 232 8.7 13.0 0.00 0.11 0.00 94 1005.9
20260510053044 50 215 8.7 14.8 0.00 0.11 0.00 95 1006.0
20260510052543 50 219 7.8 14.8 0.00 0.11 0.00 95 1005.8
20260510052044 49 198 7.8 12.2 0.00 0.11 0.00 94 1005.8
20260510051544 49 196 8.7 13.0 0.00 0.11 0.00 94 1005.7
20260510051043 49 219 8.7 13.0 0.00 0.11 0.00 94 1005.6
20260510050544 50 200 8.7 12.2 0.00 0.11 0.00 94 1005.6
20260510050043 50 224 7.8 10.4 0.00 0.11 0.00 94 1005.5
20260510045544 50 213 7.8 12.2 0.00 0.11 0.00 94 1005.5
20260510045043 50 229 8.7 12.2 0.00 0.11 0.00 94 1005.4
20260510044032 50 234 7.8 12.2 0.00 0.11 0.00 94 1005.3
20260510043526 50 231 7.8 12.2 0.00 0.11 0.00 94 1005.2
20260510043020 50 225 7.8 13.0 0.00 0.11 0.00 94 1005.2
20260510042513 51 216 7.8 13.0 0.00 0.11 0.00 94 1005.1
20260510042007 51 226 7.8 12.2 0.00 0.11 0.00 94 1005.0
20260510041501 51 221 7.8 12.2 0.00 0.11 0.00 94 1005.0
20260510040956 51 217 8.7 12.2 0.00 0.11 0.00 95 1005.0
20260510035944 50 215 7.8 11.3 0.01 0.11 0.11 94 1004.8
20260510035437 50 196 7.8 12.2 0.01 0.11 0.11 93 1004.7
20260510034931 51 205 7.8 12.2 0.01 0.11 0.11 94 1004.7
20260510034426 51 213 7.8 10.4 0.01 0.11 0.11 94 1004.8
20260510033919 51 207 7.8 12.2 0.02 0.11 0.11 94 1004.7
20260510033414 51 224 7.8 13.9 0.02 0.11 0.11 93 1004.6
20260510032907 51 219 7.0 13.9 0.04 0.11 0.11 94 1004.6
20260510032401 50 203 6.1 8.7 0.06 0.11 0.11 94 1004.4
20260510031855 50 208 4.3 8.7 0.10 0.11 0.11 93 1004.5
20260510031350 50 0 3.5 7.0 0.11 0.11 0.11 93 1004.4
20260510030337 50 218 5.2 8.7 0.10 0.10 0.10 93 1004.2
20260510025832 50 185 7.0 10.4 0.10 0.10 0.10 92 1004.3
20260510025325 50 182 8.7 12.2 0.10 0.10 0.10 92 1004.4
20260510024819 50 192 8.7 13.0 0.10 0.10 0.10 91 1004.5
20260510024314 50 178 8.7 13.0 0.09 0.09 0.10 90 1004.5
20260510023807 51 190 9.6 14.8 0.09 0.09 0.09 88 1004.7
20260510023302 53 196 9.6 16.5 0.08 0.08 0.09 88 1004.7
20260510022755 55 0 6.1 16.5 0.07 0.07 0.07 87 1004.7
20260510022249 55 230 6.1 13.0 0.04 0.04 0.04 86 1004.8
20260510021743 55 215 8.7 13.0 0.01 0.01 0.01 85 1004.4
20260510021240 55 217 9.6 15.6 0.00 0.00 0.00 82 1003.9
20260510020732 55 188 10.4 18.2 0.00 0.00 0.00 81 1003.7
20260510020226 55 175 11.3 18.2 0.00 0.00 0.00 81 1003.5
20260510015719 56 0 10.4 17.4 0.00 0.00 0.00 81 1003.4
20260510015213 56 175 10.4 15.6 0.00 0.00 0.00 81 1003.3
20260510014201 55 167 9.6 14.8 0.00 0.00 0.00 81 1002.8
20260510013149 56 164 10.4 15.6 0.00 0.00 0.00 80 1003.3
20260510012643 56 178 10.4 15.6 0.00 0.00 0.00 79 1003.4
20260510012143 56 171 11.3 16.5 0.00 0.00 0.00 80 1003.4
20260510011143 56 165 9.6 15.6 0.00 0.00 0.00 80 1003.4
20260510010644 56 167 11.3 19.1 0.00 0.00 0.00 78 1003.3
20260510005643 56 171 11.3 19.1 0.00 0.00 0.00 78 1003.2
20260510005143 57 146 10.4 19.1 0.00 0.00 0.00 78 1003.2
20260510004644 57 184 10.4 17.4 0.00 0.00 0.00 77 1003.1
20260510004143 56 155 9.6 15.6 0.00 0.00 0.00 77 1003.1
20260510002643 57 165 7.8 12.2 0.00 0.00 0.00 77 1003.2
20260510001643 57 170 8.7 14.8 0.00 0.00 0.00 76 1003.1
20260510001139 57 179 7.8 14.8 0.00 0.00 0.00 76 1003.2
20260510000139 57 168 6.1 12.2 0.00 0.00 0.00 76 1003.2
20260509235639 57 157 6.1 10.4 0.00 0.00 0.00 77 1003.4
20260509235139 57 165 6.1 10.4 0.00 0.00 0.00 76 1003.5
20260509234638 57 164 5.2 10.4 0.00 0.00 0.00 76 1003.5
20260509234137 57 162 6.1 10.4 0.00 0.00 0.00 76 1003.6
20260509233637 57 171 6.1 9.6 0.00 0.00 0.00 75 1003.6
20260509232637 57 164 5.2 8.7 0.00 0.00 0.00 75 1003.8
20260509232137 57 162 6.1 10.4 0.00 0.00 0.00 75 1004.0
20260509231637 57 180 7.0 11.3 0.00 0.00 0.00 74 1003.9
20260509231136 57 171 7.0 11.3 0.00 0.00 0.00 76 1003.9
20260509230635 56 167 7.0 11.3 0.00 0.00 0.00 77 1004.0
20260509230135 57 183 7.8 11.3 0.00 0.00 0.00 75 1004.0
20260509225635 57 0 8.7 13.9 0.00 0.00 0.00 74 1004.0
20260509224136 56 173 7.8 13.9 0.00 0.00 0.00 75 1004.0
20260509223635 57 181 7.0 13.9 0.00 0.00 0.00 74 1004.1
20260509223135 56 196 7.0 14.8 0.00 0.00 0.00 75 1004.0
20260509222631 57 142 6.1 14.8 0.00 0.00 0.00 75 1003.9
20260509222132 56 175 4.3 9.6 0.00 0.00 0.00 75 1003.8
20260509221632 56 177 6.1 9.6 0.00 0.00 0.00 74 1003.8
20260509221131 56 162 7.0 10.4 0.00 0.00 0.00 73 1003.7
20260509220631 57 225 7.8 13.0 0.00 0.00 0.00 72 1003.8
20260509220131 57 171 7.8 13.0 0.00 0.00 0.00 71 1003.7
20260509215631 57 181 7.8 13.9 0.00 0.00 0.00 72 1003.7
20260509215131 57 178 7.8 13.9 0.00 0.00 0.00 71 1003.8
20260509214136 57 184 8.7 13.9 0.00 0.00 0.00 70 1003.9
20260509213632 57 179 7.8 11.3 0.00 0.00 0.00 71 1004.1
20260509213131 57 180 8.7 13.0 0.00 0.00 0.00 71 1004.1
20260509212632 58 182 8.7 13.0 0.00 0.00 0.00 70 1004.1
20260509212131 58 170 9.6 17.4 0.00 0.00 0.00 69 1004.1
20260509211632 59 180 10.4 18.2 0.00 0.00 0.00 69 1004.0
20260509211131 58 197 12.2 20.9 0.00 0.00 0.00 69 1004.2
20260509210631 59 226 13.0 22.6 0.00 0.00 0.00 68 1004.2
20260509210131 59 144 11.3 22.6 0.00 0.00 0.00 69 1004.1
20260509205630 58 197 13.0 19.1 0.00 0.00 0.00 69 1004.2
20260509205124 59 178 14.8 25.2 0.00 0.00 0.00 68 1004.1
20260509204623 58 191 13.9 25.2 0.00 0.00 0.00 69 1004.3
20260509204123 58 153 13.9 20.9 0.00 0.00 0.00 69 1004.1
20260509203622 59 181 13.9 20.9 0.00 0.00 0.00 68 1004.3
20260509203123 59 182 13.0 20.9 0.00 0.00 0.00 68 1004.4
20260509202619 59 170 11.3 20.9 0.00 0.00 0.00 67 1004.3
20260509202118 59 199 9.6 17.4 0.00 0.00 0.00 66 1004.1
20260509201619 59 0 7.0 13.0 0.00 0.00 0.00 65 1004.1
20260509200617 60 0 5.2 7.8 0.00 0.00 0.00 60 1004.1
20260509195615 63 0 7.0 10.4 0.00 0.00 0.00 54 1004.2
20260509195115 63 0 7.0 11.3 0.00 0.00 0.00 51 1004.3
20260509194612 64 208 7.8 11.3 0.00 0.00 0.00 49 1004.3
20260509194113 64 0 7.0 12.2 0.00 0.00 0.00 50 1004.4
20260509193613 63 207 7.8 12.2 0.00 0.00 0.00 51 1004.5
20260509193112 63 234 7.8 10.4 0.00 0.00 0.00 52 1004.5
20260509192611 62 187 7.8 12.2 0.00 0.00 0.00 54 1004.4
20260509192110 61 218 8.7 12.2 0.00 0.00 0.00 56 1004.5
20260509191608 60 219 7.8 12.2 0.00 0.00 0.00 60 1004.6
20260509191109 60 205 7.0 10.4 0.00 0.00 0.00 62 1004.6
20260509190609 59 202 7.0 9.6 0.00 0.00 0.00 62 1004.7
20260509190107 60 201 7.0 8.7 0.00 0.00 0.00 63 1004.8
20260509185606 60 220 7.8 10.4 0.00 0.00 0.00 61 1004.9
20260509185105 61 210 8.7 13.0 0.00 0.00 0.00 59 1005.1
20260509184604 61 213 8.7 13.0 0.00 0.00 0.00 57 1005.2
20260509184105 61 229 7.8 10.4 0.00 0.00 0.00 56 1005.3
20260509183601 62 218 8.7 12.2 0.00 0.00 0.00 55 1005.2
20260509183100 61 221 8.7 12.2 0.00 0.00 0.00 55 1005.4
20260509182601 61 229 9.6 12.2 0.00 0.00 0.00 55 1005.4
20260509182101 60 219 9.6 13.0 0.00 0.00 0.00 57 1005.4
20260509181101 60 218 9.6 13.0 0.00 0.00 0.00 56 1005.5
20260509180056 61 208 10.4 13.0 0.00 0.00 0.00 52 1005.5
20260509175557 61 217 8.7 13.0 0.00 0.00 0.00 53 1005.6
20260509175056 61 211 7.8 13.0 0.00 0.00 0.00 53 1005.6
20260509174056 61 211 7.0 12.2 0.00 0.00 0.00 51 1005.7
20260509173557 62 194 6.1 12.2 0.00 0.00 0.00 47 1005.7
20260509173055 62 218 6.1 7.8 0.00 0.00 0.00 47 1005.8
20260509172556 62 0 7.0 9.6 0.00 0.00 0.00 48 1005.7
20260509172055 61 0 6.1 9.6 0.00 0.00 0.00 47 1005.8
20260509171551 61 0 6.1 9.6 0.00 0.00 0.00 49 1005.9
20260509171051 61 0 6.1 12.2 0.00 0.00 0.00 50 1006.1
20260509170549 60 210 6.1 12.2 0.00 0.00 0.00 50 1006.1
20260509165549 61 209 7.0 12.2 0.00 0.00 0.00 50 1006.4
20260509165050 60 202 7.0 10.4 0.00 0.00 0.00 50 1006.5
20260509164547 60 205 6.1 10.4 0.00 0.00 0.00 52 1006.6
20260509164047 60 212 5.2 10.4 0.00 0.00 0.00 53 1006.5
20260509163545 60 0 4.3 7.8 0.00 0.00 0.00 53 1006.6
20260509163044 59 0 3.5 5.2 0.00 0.00 0.00 56 1006.6
20260509162545 59 169 4.3 6.1 0.00 0.00 0.00 54 1006.7
20260509162043 60 0 6.1 8.7 0.00 0.00 0.00 52 1006.8
20260509161543 60 196 7.8 12.2 0.00 0.00 0.00 50 1007.0
20260509161044 60 217 7.8 12.2 0.00 0.00 0.00 49 1007.2
20260509160543 60 223 7.8 10.4 0.00 0.00 0.00 51 1007.1
20260509160043 59 221 7.8 10.4 0.00 0.00 0.00 52 1007.3
20260509155045 59 212 7.0 11.3 0.00 0.00 0.00 52 1007.6
20260509154545 58 217 6.1 11.3 0.00 0.00 0.00 52 1007.6
20260509154042 58 0 5.2 9.6 0.00 0.00 0.00 56 1007.7
20260509153042 0 0.0 0.0 0.00 0.00 0.00 1007.8
20260509152445 0 0.0 0.0 0.00 0.00 0.00 1007.9
20260509151943 0 0.0 0.0 0.00 0.00 0.00 1007.9
20260509151433 0 0.0 0.0 0.00 0.00 0.00 1008.0
20260509150927 0 0.0 0.0 0.00 0.00 0.00 1008.1
20260509150345 0 0.0 0.0 0.00 0.00 0.00 1008.1
20260509145843 0 0.0 0.0 0.00 0.00 0.00 1008.2
20260509145340 0 0.0 0.0 0.00 0.00 0.00 1008.2
20260509144747 0 0.0 0.0 0.00 0.00 0.00 1008.3
20260509144150 0 0.0 0.0 0.00 0.00 0.00 1008.4
20260509143133 0 0.0 0.0 0.00 0.00 0.00 1008.3
20260509142546 0 0.0 0.0 0.00 0.00 0.00 1008.4
20260509141436 0 0.0 0.0 0.00 0.00 0.00 1008.4
20260509140844 0 0.0 0.0 0.00 0.00 0.00 1008.6
20260509135150 0 0.0 0.0 0.00 0.00 0.00 1008.7
20260509134646 0 0.0 0.0 0.00 0.00 0.00 1008.7
20260509133547 0 0.0 0.0 0.00 0.00 0.00 1008.8
20260509133046 0 0.0 0.0 0.00 0.00 0.00 1008.9
20260509132540 0 0.0 0.0 0.00 0.00 0.00 1009.0
20260509131946 0 0.0 0.0 0.00 0.00 0.00 1009.0
20260509131436 0 0.0 0.0 0.00 0.00 0.00 1009.0
20260509130847 0 0.0 0.0 0.00 0.00 0.00 1009.0
20260509130345 0 0.0 0.0 0.00 0.00 0.00 1008.9
20260509125843 0 0.0 0.0 0.00 0.00 0.00 1008.9
20260509125338 0 0.0 0.0 0.00 0.00 0.00 1008.9
20260509124245 0 0.0 0.0 0.00 0.00 0.00 1008.9
20260509123151 0 0.0 0.0 0.00 0.00 0.00 1009.1
20260509121643 0 0.0 0.0 0.00 0.00 0.00 1009.1
20260509121141 0 0.0 0.0 0.00 0.00 0.00 1009.2